Location: Beadle
(51.4667°N, 109.0000°W)
Time: 10:42:39
(UTC+00:00)

deb Explorer IX - Pass Details

Date: 29 May 2022
Orbit: 535 x 1068 km, 38.8° (Epoch: 04 July)

Event Time Altitude Azimuth Distance (km) Brightness Sun altitude
Rises 19:04:07 0° 242° (WSW) 3,807 ? 60.2°
Reaches altitude 10° 19:07:21 10° 231° (SW) 2,806 ? 60.2°
Maximum altitude 19:12:47 26° 178° (S) 1,792 ? 60.2°
Drops below altitude 10° 19:17:46 10° 124° (SE) 2,548 ? 60.2°
Sets 19:20:34 0° 112° (ESE) 3,393 ? 60.2°
